Location: Bidart
(43.4376°N, 1.5913°W)
Time: 20:00:39
(UTC+00:00)

Cosmos 2360 - Pass Details

Date: 19 May 2025
Orbit: 846 x 855 km, 70.8° (Epoch: 21 June)

Event Time Altitude Azimuth Distance (km) Brightness Sun altitude
Rises 20:44:09 0° 335° (NNW) 3,430 8.8 -11.9°
Reaches altitude 10° 20:46:38 10° 337° (NNW) 2,489 7.8 -12.3°
Maximum altitude 20:52:21 77° 64° (ENE) 875 4.2 -13.0°
Enters shadow 20:56:38 18° 149° (SSE) 1,946 5.5 -13.6°
